User: anonymous   Login
Location: Unspecified
(0.0000°N, 0.0000°E)
Time: 10:50:17
(UTC+00:00)
Language:

NOSS 3-3 (C) - Orbit

View from above orbital plane
View from above orbital plane
View from above satellite
View from above satellite

Ground track
Ground track

The orbit data is extracted from the following two-line orbital elements,

1 28541U 05004C   18308.20524481 0.00000000  00000-0  00000-0 0    08
2 28541  63.4282 340.9860 0313000 358.1009   1.8991 13.40772060    08
Epoch (UTC): 04 November 2018 04:55:33
Eccentricity: 0.0313000
inclination: 63.4282°
perigee height: 872 km
apogee height: 1340 km
right ascension of ascending node: 340.9860°
argument of perigee: 358.1009°
revolutions per day: 13.40772060
mean anomaly at epoch: 1.8991°
orbit number at epoch: 0

The dashed part of the orbit path shows where the satellite is in the earth's shadow,  

DLR